Flag for Azerbaijan Weather past 2 weeks in Sumqayit, Azerbaijan

Now
73 °F

Passing clouds.


Feels Like: 72 °F
Forecast: 68 / 80 °F
Wind: 6 mph from North

Location: Baku / Bine Airport

Current Time: Sep 1, 2015 at 1:17:47 AM

Latest Report: Sep 1, 2015 at 1:00 AM


Visibility: N/A

Pressure: 29.98 "Hg

Humidity: 89%

Dew point: 70 °F

Location of SumqayitLocation

Historic Weather in Sumqayit — Graph

°F

Sumqayit temperature yesterday

Maximum temperature yesterday: 88 °F (at 3:00 PM)
Minimum temperature yesterday: 66 °F (at 6:30 AM)
Average temperature yesterday: 78 °F

Past Weeks' High & Low Weather Summary

 TemperatureHumidityPressure
High93 °F (Aug 19, 2:30 PM)89% (Aug 19, 4:00 AM)30.12 "Hg (Aug 19, 4:00 AM)
Low61 °F (Aug 28, 5:00 AM)21% (Aug 30, 1:30 PM)29.59 "Hg (Aug 17, 2:00 AM)
Average78 °F62%29.93 "Hg
* Reported Midnight between Aug 16 and Aug 17 — Midnight between Aug 31 and Sep 1, Sumqayit, Weather by CustomWeather, © 2015

Note: Actual official high and low records may vary slightly from our data, if they occured in-between our weather recording intervals... More about our weather records

Advertising

Sumqayit weather history for previous 24 hours

 ConditionsComfort  
Time TempWeatherWind HumidityBarometerVisibility
12:00 AM
Tue, Sep 1
73 °FPassing clouds.5 mph89%29.98 "HgN/A
11:30 PM
Mon, Aug 31
73 °FPassing clouds.3 mph83%29.98 "HgN/A
11:00 PM75 °FPassing clouds.6 mph83%29.98 "HgN/A
10:30 PM75 °FPassing clouds.6 mph83%29.98 "HgN/A
10:00 PM77 °FClear.6 mph79%29.98 "Hg10 mi
9:30 PM77 °FClear.8 mph83%29.98 "Hg10 mi
9:00 PM77 °FSunny.9 mph79%29.98 "Hg10 mi
8:30 PM79 °FSunny.9 mph79%29.98 "Hg10 mi
8:00 PM79 °FSunny.12 mph74%29.98 "Hg10 mi
7:30 PM81 °FPassing clouds.12 mph70%29.98 "HgN/A
7:00 PM81 °FPassing clouds.12 mph70%29.98 "HgN/A
6:30 PM82 °FPassing clouds.12 mph66%29.98 "HgN/A
6:00 PM82 °FPassing clouds.14 mph66%29.98 "HgN/A
5:30 PM82 °FSunny.14 mph62%29.98 "Hg10 mi
5:00 PM84 °FSunny.13 mph62%29.98 "Hg10 mi
4:30 PM84 °FSunny.13 mph55%29.98 "Hg10 mi
4:00 PM86 °FSunny.14 mph43%29.98 "Hg10 mi
3:30 PM86 °FSunny.15 mph46%29.98 "Hg10 mi
3:00 PM88 °FSunny.16 mph43%29.98 "Hg10 mi
2:30 PM86 °FSunny.15 mph52%29.98 "Hg10 mi
2:00 PM86 °FSunny.16 mph49%29.98 "Hg10 mi
1:30 PM86 °FSunny.16 mph55%29.98 "Hg10 mi
1:00 PM86 °FSunny.17 mph52%30.01 "Hg10 mi
12:30 PM84 °FSunny.17 mph62%30.01 "Hg10 mi
12:00 PM84 °FSunny.17 mph62%30.01 "Hg10 mi
11:30 AM84 °FSunny.17 mph58%30.01 "Hg10 mi
11:00 AM84 °FSunny.17 mph58%30.01 "Hg10 mi
10:30 AM84 °FSunny.20 mph55%30.01 "Hg10 mi
10:00 AM82 °FSunny.20 mph51%30.01 "Hg10 mi
9:30 AM82 °FSunny.14 mph51%30.01 "Hg10 mi
9:00 AM81 °FSunny.10 mph51%30.01 "Hg10 mi
8:30 AM77 °FSunny.8 mph54%29.98 "Hg10 mi
8:00 AM70 °FClear.6 mph73%29.98 "Hg10 mi
7:30 AM66 °FClear.No wind78%29.98 "Hg10 mi
7:00 AM66 °FClear.3 mph83%29.98 "Hg10 mi
6:30 AM66 °FClear.3 mph83%29.95 "Hg10 mi
6:00 AM70 °FClear.No wind73%29.95 "Hg10 mi
5:30 AM70 °FClear.No wind69%29.95 "Hg10 mi
5:00 AM72 °FClear.No wind69%29.95 "Hg10 mi
4:30 AM73 °FClear.No wind65%29.95 "Hg10 mi
4:00 AM72 °FClear.No wind69%29.95 "Hg10 mi
2:30 AM72 °FClear.3 mph83%29.95 "Hg10 mi
2:00 AM72 °FClear.6 mph83%29.95 "Hg10 mi
1:30 AM72 °FClear.3 mph83%29.95 "Hg10 mi
1:00 AM72 °FClear.2 mph83%29.95 "Hg10 mi
Weather by CustomWeather, © 2015

See weather overviewHow to use our weather pages